ATLAS 5 CENTAUR DEB, 44651

Orbit data source: Space-Track

ATLAS 5 CENTAUR DEB, 44651 is space debris in HEO originally from a launch on Wed, 17 Oct 2018 UTC launched from the Air Force Eastern Test Range (AFETR). Debris objects in space refer to the collection of defunct objects orbiting the Earth. Examples of debris include non-operational satellites, rocket bodies, and fragments generated from explosions, collisions, or faulty payload assembly.

Loading next visibility...
Identifier
44651, 2018-079M
Orbit
HEO
Country
Flag of USUS
Related business
Flag of USUnited Launch Alliance/Lockheed Martin (US)
Manufacturer
ULA Decatur
Mission
Spacecraft
Bus & Motor
Unknown
Mass
Unknown
Launch date (UTC)
2018-10-17 (7 years ago)
Launch vehicle
Unknown
Launch site
Air Force Eastern Test Range (AFETR)
Object type
Payload
Rocket body
Debris
Shape & HBR
Unknown shape, 1.1 m
Radar Cross Section
RCS unknown

Expand to show TLE details & history
Last TLE update: 2 days ago

TLE from 2 days ago
0 ATLAS 5 CENTAUR DEB
1 44651U 18079M   26033.17633734 -.00000187  00000-0  00000-0 0  9990
2 44651  13.1419  44.7068 4674702 298.3288  22.3562  1.83298208 45606
Epoch: 2026-02-02T04:13Z
TLE epoch observation values (Epoch: 2026-02-02T04:13:55.546Z)
Latitude
-0.00003°
Longitude
-151.06961°
Altitude
11,665.182 km
Speed
5.482 km/s
True Right ascension
02h 59m 08s
True Declination
0° 00' 00"
Sunlit
Object was in daylight at epoch
Visualization orbit readout
Latitude
Unknown
Longitude
Unknown
Altitude
Unknown
Speed
Unknown
Apparent Right ascension
Unknown
Apparent Declination
Unknown
Sunlit
N/A
Visualization observer readout
Local Sidereal Time
01:45:33
Azimuth
Unknown
Elevation
Unknown
Doppler factor
Unknown
Orbital elements
Apogee altitude
35,012.111 km
Perigee altitude
8,641.957 km
Semi-major axis
28,205.171 km
Eccentricity
0.46747
Inclination
13.1419°
RAAN
44.7068°
Arg. of periapsis
298.3288°
True anomaly
61.35866°
Mean anomaly
22.3562°
Eccentric anomaly
39.33246°
Mean motion
0.45819 °/min
Orbital period
785.69 mins
BSTAR
0
Loading maneuver chart data...
Computing Atmospheric mass density...

Documentation

Showing up to 5 results
|